Probability
0 0 0 0 0 0 0 0 0 0 0 0 1 5 9 14 18 21 21 19 18 19 19 18 16 17 20 22 25 29 28 27 29 31 30 26 22 16 11 9 11 11 9 8
0 0 0 0 0 0 0 0 0 0 0 2 5 9 12 15 20 24 24 21 20 21 20 19 19 20 21 23 26 29 30 30 34 37 37 31 23 15 10 9 10 11 10 10
0 0 0 0 0 1 2 2 1 1 2 6 10 13 14 16 21 25 26 24 23 25 23 21 23 25 26 28 30 33 34 34 38 41 42 37 29 20 14 12 12 12 12 11
0 0 0 0 0 2 3 3 3 3 6 10 14 16 16 16 20 23 24 24 26 27 26 25 28 31 32 34 36 39 39 37 38 42 42 40 35 27 20 17 15 14 12 11
0 0 0 0 0 2 3 4 5 7 9 14 18 20 18 17 21 23 25 26 27 28 28 29 32 35 37 39 41 42 41 38 39 40 41 40 37 29 23 20 17 14 12 10
0 0 0 0 0 2 3 5 7 10 13 17 21 21 20 22 26 29 30 30 29 30 30 32 36 39 42 42 43 43 40 38 38 37 36 36 35 29 25 22 19 15 12 9
0 0 0 0 1 1 2 4 9 14 17 19 24 24 24 29 34 36 35 33 32 32 32 34 40 44 45 45 44 42 39 37 37 35 32 31 32 30 26 23 19 16 11 8
0 0 0 1 2 2 1 3 9 15 18 20 25 29 30 34 38 37 35 33 32 32 33 35 39 43 45 45 43 40 38 36 35 34 32 30 28 26 22 20 18 14 11 9
2 1 1 2 3 4 4 4 7 13 17 20 24 29 33 36 37 33 31 31 32 33 34 34 36 38 40 41 39 37 34 32 31 30 29 28 25 21 18 17 17 14 10 9
4 4 4 4 5 7 6 6 8 12 16 20 22 26 30 33 32 30 28 30 32 33 33 33 33 33 33 33 34 33 31 28 26 25 25 24 21 17 15 14 14 13 11 10
5 5 5 5 6 8 7 8 10 14 16 18 19 22 24 24 24 25 25 27 31 32 31 30 30 29 29 29 29 30 29 26 24 22 21 20 17 14 10 8 8 10 10 10
3 3 3 5 7 9 8 8 10 13 14 14 15 18 19 16 15 17 19 22 26 30 29 26 26 27 28 27 27 27 27 25 22 20 18 16 14 10 6 3 2 4 5 6
1 1 2 5 7 8 8 7 7 8 9 11 13 15 16 13 10 11 13 16 21 23 23 21 21 23 24 25 25 26 24 21 19 18 16 14 13 10 7 4 2 1 1 2
1 1 3 4 6 6 6 6 5 4 6 8 10 12 13 11 8 6 8 11 16 18 18 17 16 16 17 19 21 22 20 16 14 14 14 14 13 12 9 7 5 3 1 0
2 2 3 3 3 4 4 4 3 3 4 6 7 8 10 8 5 3 4 7 12 15 15 14 13 13 13 14 15 15 13 11 10 12 14 14 13 12 11 9 8 6 3 1
1 1 2 3 2 2 2 2 2 2 3 4 5 7 7 6 4 3 3 5 9 11 11 12 13 13 12 12 11 11 9 8 9 12 15 14 13 12 12 11 10 8 5 2
0 0 1 2 2 1 1 1 1 1 1 2 4 6 6 5 4 4 4 5 7 8 9 11 12 12 11 10 10 10 8 7 8 11 14 14 12 12 12 12 11 10 7 5
0 0 0 1 1 1 0 0 0 0 0 1 3 5 6 6 5 4 3 4 6 7 8 9 9 9 8 7 7 6 6 5 7 9 12 13 12 12 11 11 10 9 8 7
0 0 0 0 0 0 0 0 0 0 0 0 2 4 6 6 5 3 2 3 4 5 6 7 6 5 6 5 4 4 3 3 4 6 8 9 10 11 11 9 6 5 6 6
0 0 0 0 0 0 0 0 0 0 0 0 0 2 3 4 3 3 2 3 3 4 5 6 4 3 3 3 2 2 2 1 2 3 4 5 7 8 7 5 2 2 3 4
0 0 0 0 0 0 0 0 0 0 0 0 0 0 1 1 1 1 2 3 3 3 4 4 2 1 1 1 1 1 1 0 0 1 1 2 3 4 3 1 0 1 2 2
0 0 0 0 0 0 0 0 0 0 0 0 0 0 0 0 0 0 1 1 2 1 1 1 1 0 0 0 0 0 0 0 0 0 0 1 1 1 0 0 0 0 1 1
0 0 0 0 0 0 0 0 0 0 0 0 0 0 0 0 0 0 0 0 0 0 0 0 0 0 0 0 0 0 0 0 0 0 0 0 0 0 0 0 0 0 0 0
0 0 0 0 0 0 0 0 0 0 0 0 0 0 0 0 0 0 0 0 0 0 0 0 0 0 0 0 0 0 0 0 0 0 0 0 0 0 0 0 0 0 0 0
0 0 0 0 0 0 0 0 0 0 0 0 0 0 0 0 0 0 0 0 0 0 0 0 0 0 0 0 0 0 0 0 0 0 0 0 0 0 0 0 0 0 0 0
0 0 0 0 0 0 0 0 0 0 0 0 0 0 0 0 0 0 0 0 0 0 0 0 0 0 0 0 0 0 0 0 0 0 0 0 0 0 0 0 0 0 0 0
0 0 0 0 0 0 0 0 0 0 0 0 0 0 0 0 0 0 0 0 0 0 0 0 0 0 0 0 0 0 0 0 0 0 0 0 0 0 0 0 0 0 0 0
Wind_Speed
3 3 2 2 3 3 4 7 8 7 6 8 7 5 5 3 1 1 2 2 4 5 5 5 5 5 6 6 5 6 6 7 7 7 6 6 6 6 6 5 4 3 3 2
1 1 2 2 3 3 4 3 4 3 5 6 5 3 3 2 2 3 3 4 3 4 4 5 5 5 4 5 6 6 7 7 6 6 6 7 6 6 5 4 4 4 3 2
3 3 2 3 4 4 3 2 4 4 6 4 3 4 5 5 4 5 5 4 5 5 6 7 6 5 5 4 4 5 5 5 5 6 6 6 6 6 5 5 4 4 3 3
1 1 5 7 2 2 3 1 1 1 3 3 5 6 5 4 4 4 4 4 5 4 4 4 4 4 4 4 5 5 5 5 5 5 5 5 6 5 5 4 4 3 3 3
3 3 4 5 1 1 1 1 1 1 4 5 5 4 3 1 1 3 4 4 4 4 4 3 4 4 4 4 4 5 5 5 5 5 5 6 6 5 4 4 3 3 3 3
4 4 6 6 4 4 2 3 3 3 3 4 3 2 5 4 4 4 3 3 3 2 1 2 3 4 5 4 4 5 5 4 5 5 5 6 6 6 5 5 4 4 3 2
3 3 6 5 6 3 3 5 6 4 3 3 3 6 6 5 5 3 2 2 1 1 1 2 3 5 5 5 6 5 4 4 5 5 5 5 4 4 5 5 4 4 3 2
3 3 6 3 3 2 4 5 4 5 4 5 6 6 5 4 3 2 2 1 1 1 1 1 2 4 5 5 4 4 4 4 4 4 4 5 5 5 5 5 5 4 3 2
6 6 4 2 2 4 3 4 4 4 6 5 6 6 5 3 2 2 2 1 1 1 1 0 1 3 4 3 3 4 4 4 4 4 3 4 5 5 4 4 4 3 3 3
2 5 5 4 4 4 3 4 5 5 5 4 5 5 5 3 3 3 2 2 1 1 1 0 0 1 3 4 4 5 4 4 3 4 4 3 3 4 4 4 4 4 3 3
3 5 6 4 3 4 4 3 4 5 5 4 4 4 3 3 3 3 3 2 1 1 2 2 1 1 2 4 5 5 5 4 4 4 4 4 3 2 2 2 4 5 4 4
6 6 4 7 5 5 4 4 4 5 5 5 4 3 2 2 2 3 2 2 1 0 1 1 2 1 1 4 5 5 5 4 4 4 4 4 4 2 4 3 3 3 4 4
7 5 5 7 6 5 4 4 4 3 4 4 4 2 1 1 2 2 3 3 2 1 1 1 1 1 0 2 4 4 4 4 3 4 4 4 4 4 3 3 4 4 4 4
5 3 5 5 5 5 4 4 3 3 3 2 2 1 0 0 1 1 2 3 2 0 0 1 1 1 1 2 3 4 4 4 4 3 3 4 4 4 4 4 3 1 2 3
5 4 6 6 5 5 4 2 2 3 2 2 1 1 1 1 0 1 2 1 1 1 0 1 1 1 1 1 3 3 3 3 3 3 4 4 4 4 4 4 3 3 2 2
5 5 4 5 5 5 3 2 2 3 3 3 2 2 2 1 1 1 1 1 1 1 1 1 1 2 1 1 2 2 2 4 4 3 3 4 4 4 4 4 4 3 3 3
3 4 5 5 5 5 4 4 4 4 3 3 3 2 2 0 0 0 1 1 0 0 0 0 2 2 0 1 2 1 1 3 4 3 3 4 4 4 4 4 4 4 3 3
4 5 5 5 5 5 5 5 4 4 4 4 3 2 1 2 2 1 1 0 2 2 1 1 1 1 0 1 1 1 2 2 2 2 3 3 3 4 4 4 4 4 3 3
3 3 3 3 3 3 4 4 4 3 3 3 2 2 2 2 2 1 1 1 1 0 2 2 1 0 0 0 1 1 2 3 3 2 3 4 4 4 4 4 4 4 4 3
2 3 3 2 2 2 3 3 2 2 2 2 1 1 1 1 2 2 2 0 1 2 1 0 0 0 0 1 2 2 2 3 3 3 3 3 4 3 3 4 4 3 3 3
3 3 3 3 3 3 3 2 1 2 3 1 1 1 1 0 1 1 1 0 2 1 0 1 1 1 1 2 3 2 3 3 3 3 4 4 4 3 3 3 3 3 3 3
2 2 2 2 3 3 3 2 1 1 2 1 1 1 1 1 1 1 1 1 2 1 1 1 1 1 2 3 2 3 3 3 3 3 3 3 4 3 3 4 3 3 3 2
3 2 2 2 2 3 3 3 2 1 1 1 0 1 1 1 1 1 1 1 1 1 1 1 2 4 5 3 3 3 4 4 4 3 3 3 3 4 3 4 3 3 3 3
2 2 2 2 2 2 3 3 3 2 1 1 1 1 1 1 0 0 1 1 1 2 2 2 4 5 5 3 3 3 4 3 3 3 3 3 3 3 3 3 3 3 3 3
2 2 2 2 2 2 2 3 2 2 2 2 2 2 0 1 1 0 1 2 3 3 2 3 4 5 4 3 3 3 3 3 3 4 3 3 3 3 2 2 2 2 2 2
2 2 2 2 1 2 1 1 1 1 1 1 2 2 2 1 1 2 2 2 3 3 2 2 2 3 3 3 3 3 3 3 3 3 3 3 3 3 2 2 3 2 2 2
2 2 1 2 2 1 1 1 1 1 1 0 1 1 2 2 2 3 3 2 2 2 2 2 2 3 3 3 3 3 2 2 3 3 3 3 3 2 2 3 2 2 2 3
Wind_Direction
225 235 208 222 229 192 186 183 182 215 222 255 267 266 270 266 247 122 138 160 178 185 188 187 189 191 188 181 176 177 181 190 198 190 179 175 175 174 177 180 182 164 164 172
272 274 227 258 264 212 213 192 193 198 249 268 282 295 288 259 205 196 198 201 202 199 194 195 197 196 199 192 178 176 188 201 194 183 180 179 179 173 168 168 163 154 171 180
243 299 17 263 234 194 190 194 168 197 246 299 312 289 255 241 220 218 218 209 203 207 208 205 204 196 192 195 176 174 186 191 186 183 182 183 180 171 173 173 165 165 173 176
160 96 216 236 268 172 148 127 156 226 280 268 266 275 260 231 217 240 241 230 222 218 223 217 195 184 176 166 165 175 180 181 177 179 182 177 172 175 173 162 163 166 164 159
131 173 261 287 297 114 141 240 9 322 318 327 333 343 317 293 278 259 247 235 229 220 216 207 185 172 157 162 173 180 184 183 176 174 180 180 180 180 170 153 156 161 151 149
134 164 221 241 293 303 145 242 334 350 322 327 6 352 281 312 322 304 290 264 242 234 199 189 176 151 154 171 177 195 190 184 171 174 181 184 180 174 165 156 161 159 149 146
164 202 253 267 305 10 144 249 305 303 285 282 251 241 263 292 302 302 297 284 249 196 209 205 175 154 162 174 193 194 167 157 161 165 169 173 168 162 154 148 149 157 152 140
154 188 245 314 30 118 236 270 286 285 275 278 285 279 272 270 273 293 317 313 268 169 208 218 172 159 171 186 183 147 134 142 142 145 154 151 153 156 154 152 158 162 153 149
191 213 241 279 259 262 247 271 280 277 286 285 288 284 284 281 291 296 295 280 266 198 167 175 163 162 176 178 142 130 126 139 138 134 138 143 151 154 155 158 160 167 172 182
280 277 285 291 296 294 276 269 282 281 283 275 279 282 288 293 297 304 297 266 250 194 162 124 296 174 160 151 142 137 138 137 144 152 151 151 158 159 163 171 173 173 186 190
269 282 307 300 300 300 306 313 316 314 304 288 286 291 292 302 307 314 316 315 275 201 189 169 182 207 146 141 141 143 145 152 162 166 161 155 140 134 163 179 189 178 188 186
234 242 242 270 283 294 296 302 308 318 321 317 300 289 307 316 324 325 317 309 308 99 178 181 175 195 162 142 146 154 158 165 167 170 164 157 152 127 69 88 104 130 155 164
236 250 247 263 283 281 266 272 290 297 297 306 311 297 302 325 339 354 339 325 308 287 226 190 173 171 190 150 153 161 167 171 171 173 172 169 165 165 154 86 80 92 118 137
246 251 272 272 275 281 275 276 288 289 293 296 287 293 86 26 17 3 324 304 292 219 140 136 141 242 238 172 147 151 158 165 168 171 169 170 172 170 172 165 160 126 86 115
260 243 247 265 273 279 279 277 293 287 292 303 289 232 185 172 202 286 294 318 2 32 42 113 138 258 255 160 147 148 156 169 167 166 164 164 164 163 164 168 164 145 120 100
275 282 274 265 262 272 279 268 258 270 281 283 285 280 260 219 213 289 315 26 80 320 327 356 319 296 293 163 148 151 169 168 159 159 159 157 160 165 164 163 159 157 163 160
263 281 281 274 270 276 273 263 251 249 260 272 265 272 284 264 84 40 345 339 118 152 272 273 292 306 304 175 149 155 154 160 152 149 160 163 165 169 166 160 162 167 171 164
240 251 259 257 258 270 282 279 267 259 241 237 248 244 217 191 178 193 230 58 69 44 348 282 280 314 263 160 141 146 154 150 147 148 150 154 157 157 154 154 158 160 150 143
269 275 284 278 265 259 270 275 276 274 266 264 243 221 209 196 176 164 148 112 107 309 300 306 309 35 34 177 128 146 144 134 129 128 133 137 139 140 144 147 148 151 152 151
304 302 303 313 314 291 281 290 299 304 298 284 247 210 169 162 141 131 116 124 263 259 259 331 51 93 187 143 123 139 137 133 131 129 131 134 137 141 141 140 141 146 153 157
305 320 330 334 330 323 303 298 317 310 307 299 213 192 173 117 101 110 118 303 302 310 315 105 110 138 145 135 126 128 124 124 122 127 133 135 135 135 136 134 135 143 148 148
322 332 328 329 331 325 321 317 332 326 332 11 107 120 113 97 85 82 136 221 259 287 67 69 72 102 107 109 109 115 115 116 115 117 123 129 129 130 133 134 141 143 141 142
333 331 319 314 312 309 324 335 346 354 360 9 47 152 159 197 202 177 252 273 229 106 81 67 96 99 98 91 94 103 108 109 112 116 123 132 134 135 139 140 139 137 138 143
327 327 325 322 337 355 343 333 339 339 335 334 322 208 171 158 335 267 205 184 138 108 97 103 100 95 93 84 86 91 96 100 106 109 111 117 122 126 132 134 134 137 143 146
303 310 321 333 345 334 322 327 346 353 358 358 359 3 6 189 194 207 122 119 109 104 98 95 101 105 101 94 94 98 105 111 113 113 113 116 120 122 122 126 133 140 145 146
310 306 300 291 284 290 302 320 335 342 359 360 357 4 18 40 85 95 90 87 87 94 98 95 100 104 103 104 108 111 110 109 106 107 114 116 115 117 122 128 132 137 139 138
325 331 331 329 328 316 310 323 331 333 338 35 30 16 29 49 65 75 80 77 73 80 87 91 101 110 118 121 120 116 112 114 117 119 122 121 121 123 129 131 125 123 125 125